Regional Weather Roundup
Issued by NWS Huntsville, AL

Home | Current Version | Previous Version | Text Only | Print | Product List | Glossary On
Versions: 1 2 3 4 5 6 7 8 9 10 11 12 13 14 15 16 17 18 19 20 21 22 23 24 25 26 27
000
ASUS44 KHUN 212110
RWRHUN

WEATHER ROUNDUP FOR THE TENNESSEE VALLEY
NATIONAL WEATHER SERVICE HUNTSVILLE AL
300 PM CST WED FEB 21 2018

ALZ001>004-212200-
NORTHWEST ALABAMA

CITY           SKY/WX    TMP DP  RH WIND       PRES   REMARKS
SHOALS AIRPORT FAIR      69  58  67 NE12      30.24F
$$

ALZ005>007-016-212200-
NORTH CENTRAL ALABAMA

CITY           SKY/WX    TMP DP  RH WIND       PRES   REMARKS
DECATUR AP     FAIR      79  61  53 S18       30.22F
HUNTSVILLE AP  FAIR      80  64  58 S18       30.23F
MERIDIANVILLE  FAIR      80  60  50 S16       30.24S
REDSTONE ARSN  FAIR      81  62  52 SW17      30.22F
VINEMONT AP    FAIR      79  60  51 SW15G21   30.27F
$$

ALZ008>010-212200-
NORTHEAST ALABAMA

CITY           SKY/WX    TMP DP  RH WIND       PRES   REMARKS
FORT PAYNE     FAIR      77  61  57 MISG      30.28F
SCOTTSBORO AP  FAIR      81  63  54 S12G20    30.25F
$$

TNZ076-096-097-212200-
SOUTHEASTERN MIDDLE TENNESSEE

CITY           SKY/WX    TMP DP  RH WIND       PRES   REMARKS
TULLAHOMA      MOSUNNY   70  59  68 NW13      30.25S
WINCHESTER     MOSUNNY   79  61  53 S13       30.25F
$$

...SURROUNDING SITES...

CITY           SKY/WX    TMP DP  RH WIND       PRES   REMARKS
ATLANTA        PTSUNNY   75  66  73 S9        30.34F
ANNISTON       PTSUNNY   78  64  61 S9        30.29F
BIRMINGHAM     PTSUNNY   80  60  50 S13       30.27F
CHATTANOOGA    FAIR      78  60  53 S14G20    30.27F
CORINTH        CLOUDY    59  55  88 NE12G18   30.27S
DALTON         FAIR      73  64  73 S5        30.32F
GADSDEN        CLOUDY    78  67  68 SE12      30.28S
GOLDEN TRNGL   PTSUNNY   81  66  60 SE14      30.18F
HALEYVILLE     PTSUNNY   78  64  61 S14G20    30.25F
JACKSON TN     HVY RAIN  48  47  96 N13       30.34S FOG
MEMPHIS        LGT RAIN  48  46  93 N10       30.32F FOG
NASHVILLE      PTSUNNY   57  54  89 N10       30.31F
OXFORD MS      CLOUDY    54  54 100 N12G20    30.27F
ROME           FAIR      78  65  63 S10       30.30S
SAVANNAH       CLOUDY    59  57  94 NE10      30.28S
TUPELO         CLOUDY    63  57  81 N13       30.24R
TUSCALOOSA     PTSUNNY   82  65  56 S12       30.21F
$$

...GULF COAST WEATHER...

CITY           SKY/WX    TMP DP  RH WIND       PRES   REMARKS
GULFPORT       CLOUDY    77  73  87 SE21      30.20F
PASCAGOULA     CLOUDY    76  70  82 SE14      30.23F
MOBILE         LGT RAIN  75  70  84 SE16      30.25S
GULF SHORES    CLOUDY    75  71  87 SE14G22   30.26F
DESTIN         FAIR      76  68  76 SE12G18   30.29S
PANAMA CITY    MOSUNNY   76  69  80 SE21G29   30.30F
APPALACHICOLA  FAIR      75  71  87 SE12      30.32F
$$





USA.gov is the U.S. government's official web portal to all federal, state and local government web resources and services.